Weather History for Boscobel, WI

Change the Weather History Date:

Monday, February 18, 2013

  Actual Average (KPDC) Record (KPDC)
Temperature  
Mean Temperature 32 °F -  
Max Temperature 44 °F 35 °F 64 °F (1981)
Min Temperature 17 °F 19 °F -16 °F (2006)
Degree Days  
Heating Degree Days 34    
Moisture  
Dew Point 25 °F    
Average Humidity 74    
Maximum Humidity 89    
Minimum Humidity 62    
Precipitation  
Precipitation 0.00 in - - ()
Sea Level Pressure  
Sea Level Pressure 29.63 in    
Wind  
Wind Speed 4 mph (West)    
Max Wind Speed 15 mph    
Max Gust Speed 24 mph    
Visibility 9 miles    
Events Snow    
Averages and records for this station are not official NWS values.
T = Trace of Precipitation, MM = Missing Value Source: NWS Daily Summary

Daily Weather History Graph

Daily Weather History Graph

Search for Another Location

Airport:

Trip Planner

Search our weather history database for the weather conditions in past years. The results will help you decide how hot, cold, wet, or windy it might be!

Date:

Astronomy

Feb. 18, 2013 Rise Set
Actual Time 6:55 AM CST 5:38 PM CST
Civil Twilight 6:26 AM CST 6:07 PM CST
Nautical Twilight 5:53 AM CST 6:40 PM CST
Astronomical Twilight 5:20 AM CST 7:13 PM CST
Moon 11:19 AM CST (2/18) 1:40 AM CST (2/18)
Length of Visible Light 11h 40m
Length of Day
10h 42m
First Quarter, 58% of the Moon is Illuminated
Feb 18
First Quarter
Feb 25
Full
Mar 4
Last Quarter
Mar 11
New
Mar 19
First Quarter

Hourly Weather History & Observations

Time (CST) Temp. Windchill Dew Point Humidity Pressure Visibility Wind Dir Wind Speed Gust Speed Precip Events Conditions
12:53 AM 30.0 °F - 21.0 °F 69% 29.83 in 10.0 mi Calm Calm - N/A   Clear
1:53 AM 28.9 °F - 19.9 °F 69% 29.80 in 10.0 mi Calm Calm - N/A   Clear
2:53 AM 30.9 °F - 21.9 °F 69% 29.75 in 10.0 mi Calm Calm - N/A   Clear
3:53 AM 30.9 °F - 21.9 °F 69% 29.71 in 10.0 mi Calm Calm - N/A   Clear
4:53 AM 28.0 °F - 21.9 °F 78% 29.70 in 10.0 mi Calm Calm - N/A   Clear
5:53 AM 24.1 °F - 19.9 °F 84% 29.68 in 8.0 mi Calm Calm - N/A   Clear
6:53 AM 21.0 °F - 18.0 °F 88% 29.66 in 5.0 mi Calm Calm - N/A   Clear
8:53 AM 30.0 °F - 24.1 °F 79% 29.63 in 10.0 mi Calm Calm - N/A   Clear
9:53 AM 37.0 °F 32.4 °F 28.0 °F 70% 29.61 in 10.0 mi South 5.8 mph - N/A   Clear
10:53 AM 41.0 °F 35.2 °F 30.0 °F 65% 29.59 in 10.0 mi SW 9.2 mph - N/A   Clear
11:53 AM 43.0 °F 38.8 °F 30.9 °F 62% 29.57 in 10.0 mi SSW 6.9 mph - N/A   Clear
12:53 PM 44.1 °F 39.5 °F 32.0 °F 63% 29.55 in 10.0 mi WSW 8.1 mph - N/A   Partly Cloudy
1:53 PM 44.1 °F 39.5 °F 32.0 °F 63% 29.54 in 10.0 mi SW 8.1 mph - N/A   Mostly Cloudy
2:53 PM 43.0 °F 39.5 °F 30.9 °F 62% 29.54 in 10.0 mi West 5.8 mph - N/A   Overcast
3:53 PM 39.9 °F 33.9 °F 30.9 °F 70% 29.55 in 10.0 mi WNW 9.2 mph - N/A   Overcast
4:53 PM 37.9 °F 30.9 °F 32.0 °F 79% 29.56 in 10.0 mi West 10.4 mph - N/A   Overcast
5:14 PM 37.4 °F 29.3 °F 32.0 °F 81% 29.55 in 10.0 mi West 12.7 mph - N/A   Overcast
5:44 PM 33.8 °F 26.4 °F 30.2 °F 87% 29.57 in 7.0 mi West 9.2 mph 19.6 mph N/A   Overcast
5:53 PM 33.1 °F 25.5 °F 30.0 °F 89% 29.60 in 8.0 mi WNW 9.2 mph - N/A   Overcast
6:08 PM 33.8 °F 27.0 °F 28.4 °F 81% 29.57 in 10.0 mi WNW 8.1 mph 18.4 mph N/A   Overcast
6:27 PM 32.0 °F 21.6 °F 24.8 °F 75% 29.58 in 10.0 mi WNW 15.0 mph 23.0 mph N/A   Overcast
6:53 PM 30.0 °F 21.7 °F 24.1 °F 79% 29.61 in 9.0 mi West 9.2 mph 19.6 mph 0.00 in   Overcast
7:53 PM 26.1 °F 14.5 °F 19.0 °F 75% 29.63 in 10.0 mi West 13.8 mph 19.6 mph N/A   Overcast
8:53 PM 21.9 °F 8.7 °F 14.0 °F 72% 29.65 in 10.0 mi West 15.0 mph 24.2 mph N/A   Overcast
9:53 PM 19.9 °F 7.9 °F 12.0 °F 71% 29.67 in 10.0 mi WSW 11.5 mph 19.6 mph N/A   Overcast
11:53 PM 17.1 °F 4.3 °F 9.0 °F 71% 29.72 in 7.0 mi WNW 11.5 mph 18.4 mph 0.00 in Snow Light Snow